Time,TemperatureF,DewpointF,PressureIn,WindDirection,WindDirectionDegrees,WindSpeedMPH,WindSpeedGustMPH,Humidity,HourlyPrecipIn,Conditions,Clouds,dailyrainin,SoftwareType,DateUTC
2013-01-21 00:05:00,33.4,24.7,29.09,SSW,209,0.0,0.0,70,0.00,,SKC,0.00,VWS V14.00,2013-01-21 05:05:00,
2013-01-21 00:10:00,33.3,24.5,29.09,SSW,209,0.0,0.0,70,0.00,,SKC,0.00,VWS V14.00,2013-01-21 05:10:00,
2013-01-21 00:15:00,33.3,24.5,29.09,SSW,209,0.0,0.0,70,0.00,,SKC,0.00,VWS V14.00,2013-01-21 05:15:00,
2013-01-21 00:20:00,33.4,24.7,29.09,SSW,209,0.0,0.0,70,0.00,,SKC,0.00,VWS V14.00,2013-01-21 05:20:00,
2013-01-21 00:25:00,33.4,24.7,29.09,SSW,209,0.0,0.0,70,0.00,,SKC,0.00,VWS V14.00,2013-01-21 05:25:00,
2013-01-21 00:30:00,33.4,24.7,29.09,SSW,209,0.0,0.0,70,0.00,,SKC,0.00,VWS V14.00,2013-01-21 05:30:00,
2013-01-21 00:35:00,33.3,24.5,29.09,SSW,209,0.0,0.0,70,0.00,,SKC,0.00,VWS V14.00,2013-01-21 05:35:00,
2013-01-21 00:40:00,33.3,24.5,29.09,SSW,209,0.0,0.0,70,0.00,,SKC,0.00,VWS V14.00,2013-01-21 05:40:00,
2013-01-21 00:45:00,33.1,24.4,29.09,SSW,209,0.0,0.0,70,0.00,,SKC,0.00,VWS V14.00,2013-01-21 05:45:00,
2013-01-21 00:50:00,33.1,24.4,29.09,SSW,209,0.0,0.0,70,0.00,,SKC,0.00,VWS V14.00,2013-01-21 05:50:00,
2013-01-21 00:55:00,32.9,24.2,29.09,SSW,209,0.0,0.0,70,0.00,,SKC,0.00,VWS V14.00,2013-01-21 05:55:00,
2013-01-21 01:00:00,32.5,23.9,29.06,SSW,209,0.0,0.0,70,0.00,,SKC,0.00,VWS V14.00,2013-01-21 06:00:00,
2013-01-21 01:05:00,32.5,23.9,29.06,SSW,209,0.0,0.0,70,0.00,,SKC,0.00,VWS V14.00,2013-01-21 06:05:00,
2013-01-21 01:10:00,32.5,24.2,29.06,SSW,209,0.0,0.0,71,0.00,,SKC,0.00,VWS V14.00,2013-01-21 06:10:00,
2013-01-21 01:15:00,32.7,24.4,29.06,SSW,209,0.0,0.0,71,0.00,,SKC,0.00,VWS V14.00,2013-01-21 06:15:00,
2013-01-21 01:20:00,32.7,24.4,29.06,SSW,209,0.0,0.0,71,0.00,,SKC,0.00,VWS V14.00,2013-01-21 06:20:00,
2013-01-21 01:25:00,32.5,24.2,29.06,SSW,209,0.0,0.0,71,0.00,,SKC,0.00,VWS V14.00,2013-01-21 06:25:00,
2013-01-21 01:30:00,32.5,24.2,29.06,SSW,209,0.0,0.0,71,0.00,,SKC,0.00,VWS V14.00,2013-01-21 06:30:00,
2013-01-21 01:35:00,32.5,24.2,29.06,SSW,209,0.0,0.0,71,0.00,,SKC,0.00,VWS V14.00,2013-01-21 06:35:00,
2013-01-21 01:40:00,32.4,24.0,29.06,SSW,209,0.0,0.0,71,0.00,,SKC,0.00,VWS V14.00,2013-01-21 06:40:00,
2013-01-21 01:45:00,32.4,24.0,29.09,SSW,209,0.0,0.0,71,0.00,,SKC,0.00,VWS V14.00,2013-01-21 06:45:00,
2013-01-21 01:50:00,32.2,23.9,29.09,SSW,209,0.0,0.0,71,0.00,,SKC,0.00,VWS V14.00,2013-01-21 06:50:00,
2013-01-21 01:55:00,31.8,23.5,29.09,SSW,209,0.0,0.0,71,0.00,,SKC,0.00,VWS V14.00,2013-01-21 06:55:00,
2013-01-21 02:00:00,31.6,23.3,29.09,SSW,209,0.0,0.0,71,0.00,,SKC,0.00,VWS V14.00,2013-01-21 07:00:00,
2013-01-21 02:05:00,31.6,23.3,29.09,SSW,209,0.0,0.0,71,0.00,,SKC,0.00,VWS V14.00,2013-01-21 07:05:00,
2013-01-21 02:10:00,31.6,23.3,29.09,SSW,209,0.0,0.0,71,0.00,,SKC,0.00,VWS V14.00,2013-01-21 07:10:00,
2013-01-21 02:15:00,31.5,23.2,29.09,SSW,209,0.0,0.0,71,0.00,,SKC,0.00,VWS V14.00,2013-01-21 07:15:00,
2013-01-21 02:20:00,31.3,23.0,29.06,SSW,209,0.0,0.0,71,0.00,,SKC,0.00,VWS V14.00,2013-01-21 07:20:00,
2013-01-21 02:25:00,31.5,23.2,29.06,SSW,209,0.0,0.0,71,0.00,,SKC,0.00,VWS V14.00,2013-01-21 07:25:00,
2013-01-21 02:30:00,31.5,23.2,29.06,SSW,209,0.0,0.0,71,0.00,,SKC,0.00,VWS V14.00,2013-01-21 07:30:00,
2013-01-21 02:35:00,31.5,23.2,29.06,SSW,209,0.0,0.0,71,0.00,,SKC,0.00,VWS V14.00,2013-01-21 07:35:00,
2013-01-21 02:40:00,31.5,23.2,29.06,SSW,209,0.0,0.0,71,0.00,,SKC,0.00,VWS V14.00,2013-01-21 07:40:00,
2013-01-21 02:45:00,31.3,23.0,29.06,SSW,209,0.0,0.0,71,0.00,,SKC,0.00,VWS V14.00,2013-01-21 07:45:00,
2013-01-21 02:50:00,30.9,22.6,29.06,SSW,209,0.0,0.0,71,0.00,,SKC,0.00,VWS V14.00,2013-01-21 07:50:00,
2013-01-21 02:56:00,30.9,23.0,29.06,SSW,209,0.0,0.0,72,0.00,,SKC,0.00,VWS V14.00,2013-01-21 07:56:00,
2013-01-21 03:01:00,30.9,23.0,29.06,SSW,209,0.0,0.0,72,0.00,,SKC,0.00,VWS V14.00,2013-01-21 08:01:00,
2013-01-21 03:06:00,30.7,22.8,29.06,SSW,209,0.0,0.0,72,0.00,,SKC,0.00,VWS V14.00,2013-01-21 08:06:00,
2013-01-21 03:11:00,30.9,23.0,29.06,SSW,209,0.0,0.0,72,0.00,,SKC,0.00,VWS V14.00,2013-01-21 08:11:00,
2013-01-21 03:16:00,31.1,23.1,29.06,SSW,209,0.0,0.0,72,0.00,,SKC,0.00,VWS V14.00,2013-01-21 08:16:00,
2013-01-21 03:21:00,31.1,23.1,29.06,SSW,209,0.0,0.0,72,0.00,,SKC,0.00,VWS V14.00,2013-01-21 08:21:00,
2013-01-21 03:26:00,30.9,23.0,29.06,SSW,209,0.0,0.0,72,0.00,,SKC,0.00,VWS V14.00,2013-01-21 08:26:00,
2013-01-21 03:31:00,30.6,22.6,29.06,SSW,209,0.0,0.0,72,0.00,,SKC,0.00,VWS V14.00,2013-01-21 08:31:00,
2013-01-21 03:36:00,30.2,22.3,29.06,SSW,209,0.0,0.0,72,0.00,,SKC,0.00,VWS V14.00,2013-01-21 08:36:00,
2013-01-21 03:41:00,30.2,22.3,29.06,SSW,209,0.0,0.0,72,0.00,,SKC,0.00,VWS V14.00,2013-01-21 08:41:00,
2013-01-21 03:46:00,30.2,22.6,29.06,SSW,209,0.0,0.0,73,0.00,,SKC,0.00,VWS V14.00,2013-01-21 08:46:00,
2013-01-21 03:51:00,30.4,22.8,29.06,SSW,209,0.0,0.0,73,0.00,,SKC,0.00,VWS V14.00,2013-01-21 08:51:00,
2013-01-21 03:56:00,30.4,22.8,29.06,SSW,209,0.0,0.0,73,0.00,,SKC,0.00,VWS V14.00,2013-01-21 08:56:00,
2013-01-21 04:01:00,30.6,23.0,29.06,SSW,209,0.0,0.0,73,0.00,,SKC,0.00,VWS V14.00,2013-01-21 09:01:00,
2013-01-21 04:06:00,30.6,23.0,29.06,SSW,209,0.0,0.0,73,0.00,,SKC,0.00,VWS V14.00,2013-01-21 09:06:00,
2013-01-21 04:11:00,30.4,22.5,29.06,SSW,209,0.0,0.0,72,0.00,,SKC,0.00,VWS V14.00,2013-01-21 09:11:00,
2013-01-21 04:16:00,30.2,22.6,29.06,SSW,209,0.0,0.0,73,0.00,,SKC,0.00,VWS V14.00,2013-01-21 09:16:00,
2013-01-21 04:21:00,30.4,22.8,29.06,SSW,209,0.0,0.0,73,0.00,,SKC,0.00,VWS V14.00,2013-01-21 09:21:00,
2013-01-21 04:26:00,30.4,22.8,29.06,SSW,209,0.0,0.0,73,0.00,,SKC,0.00,VWS V14.00,2013-01-21 09:26:00,
2013-01-21 04:31:00,30.2,22.6,29.06,SSW,209,0.0,0.0,73,0.00,,SKC,0.00,VWS V14.00,2013-01-21 09:31:00,
2013-01-21 04:36:00,30.0,22.4,29.06,SSW,209,0.0,0.0,73,0.00,,SKC,0.00,VWS V14.00,2013-01-21 09:36:00,
2013-01-21 04:41:00,30.0,22.4,29.06,SSW,209,0.0,0.0,73,0.00,,SKC,0.00,VWS V14.00,2013-01-21 09:41:00,
2013-01-21 04:46:00,29.7,22.1,29.06,SSW,209,0.0,0.0,73,0.00,,SKC,0.00,VWS V14.00,2013-01-21 09:46:00,
2013-01-21 04:51:00,29.3,21.7,29.06,SSW,209,0.0,0.0,73,0.00,,SKC,0.00,VWS V14.00,2013-01-21 09:51:00,
2013-01-21 04:56:00,29.3,22.1,29.06,SSW,209,0.0,0.0,74,0.00,,SKC,0.00,VWS V14.00,2013-01-21 09:56:00,
2013-01-21 05:01:00,29.5,22.2,29.06,SSW,209,0.0,0.0,74,0.00,,SKC,0.00,VWS V14.00,2013-01-21 10:01:00,
2013-01-21 05:06:00,29.7,22.4,29.06,SSW,209,0.0,0.0,74,0.00,,SKC,0.00,VWS V14.00,2013-01-21 10:06:00,
2013-01-21 05:11:00,29.7,22.4,29.06,SSW,209,0.0,0.0,74,0.00,,SKC,0.00,VWS V14.00,2013-01-21 10:11:00,
2013-01-21 05:16:00,29.8,22.6,29.06,SSW,209,0.0,0.0,74,0.00,,SKC,0.00,VWS V14.00,2013-01-21 10:16:00,
2013-01-21 05:21:00,29.7,22.4,29.06,SSW,209,0.0,0.0,74,0.00,,SKC,0.00,VWS V14.00,2013-01-21 10:21:00,
2013-01-21 05:26:00,29.7,22.4,29.06,SSW,209,0.0,0.0,74,0.00,,SKC,0.00,VWS V14.00,2013-01-21 10:26:00,
2013-01-21 05:31:00,29.8,22.6,29.06,SSW,209,0.0,0.0,74,0.00,,SKC,0.00,VWS V14.00,2013-01-21 10:31:00,
2013-01-21 05:36:00,29.8,22.6,29.06,SSW,209,0.0,0.0,74,0.00,,SKC,0.00,VWS V14.00,2013-01-21 10:36:00,
2013-01-21 05:41:00,29.8,22.6,29.06,SSW,209,0.0,0.0,74,0.00,,SKC,0.00,VWS V14.00,2013-01-21 10:41:00,
2013-01-21 05:46:00,30.0,23.1,29.06,SSW,209,0.0,0.0,75,0.00,,SKC,0.00,VWS V14.00,2013-01-21 10:46:00,
2013-01-21 05:51:00,30.0,23.1,29.06,SSW,209,0.0,0.0,75,0.00,,SKC,0.00,VWS V14.00,2013-01-21 10:51:00,
2013-01-21 05:56:00,30.0,23.1,29.06,SSW,209,0.0,0.0,75,0.00,,SKC,0.00,VWS V14.00,2013-01-21 10:56:00,
2013-01-21 06:01:00,30.0,23.1,29.06,SSW,209,0.0,0.0,75,0.00,,SKC,0.00,VWS V14.00,2013-01-21 11:01:00,
2013-01-21 06:06:00,30.0,23.1,29.06,SSW,209,0.0,0.0,75,0.00,,SKC,0.00,VWS V14.00,2013-01-21 11:06:00,
2013-01-21 06:11:00,29.8,22.6,29.06,SSW,209,0.0,0.0,74,0.00,,SKC,0.00,VWS V14.00,2013-01-21 11:11:00,
2013-01-21 06:16:00,29.7,22.7,29.03,SSW,209,0.0,0.0,75,0.00,,SKC,0.00,VWS V14.00,2013-01-21 11:16:00,
2013-01-21 06:21:00,29.8,22.9,29.03,SSW,209,0.0,0.0,75,0.00,,SKC,0.00,VWS V14.00,2013-01-21 11:21:00,
2013-01-21 06:26:00,29.8,22.9,29.03,SSW,209,0.0,0.0,75,0.00,,SKC,0.00,VWS V14.00,2013-01-21 11:26:00,
2013-01-21 06:31:00,29.8,22.9,29.06,SSW,209,0.0,0.0,75,0.00,,SKC,0.00,VWS V14.00,2013-01-21 11:31:00,
2013-01-21 06:40:00,29.7,22.7,29.06,SSW,209,0.0,0.0,75,0.00,,SKC,0.00,VWS V14.00,2013-01-21 11:40:00,
2013-01-21 06:50:00,29.5,22.5,29.06,SSW,209,0.0,0.0,75,0.00,,SKC,0.00,VWS V14.00,2013-01-21 11:50:00,
2013-01-21 06:56:00,29.1,22.2,29.06,SSW,209,0.0,0.0,75,0.00,,SKC,0.00,VWS V14.00,2013-01-21 11:56:00,
2013-01-21 07:01:00,28.9,22.0,29.06,SSW,209,0.0,0.0,75,0.00,,SKC,0.00,VWS V14.00,2013-01-21 12:01:00,
2013-01-21 07:06:00,28.9,22.0,29.06,SSW,209,0.0,0.0,75,0.00,,SKC,0.00,VWS V14.00,2013-01-21 12:06:00,
2013-01-21 07:12:00,28.8,21.9,29.06,SSW,209,0.0,0.0,75,0.00,,SKC,0.00,VWS V14.00,2013-01-21 12:12:00,
2013-01-21 07:17:00,28.9,22.0,29.06,SSW,209,0.0,0.0,75,0.00,,SKC,0.00,VWS V14.00,2013-01-21 12:17:00,
2013-01-21 07:22:00,29.3,22.7,29.06,SSW,209,0.0,0.0,76,0.00,,SKC,0.00,VWS V14.00,2013-01-21 12:22:00,
2013-01-21 07:27:00,29.3,22.4,29.06,SSW,209,0.0,0.0,75,0.00,,SKC,0.00,VWS V14.00,2013-01-21 12:27:00,
2013-01-21 07:32:00,29.1,22.2,29.06,SSW,209,0.0,0.0,75,0.00,,SKC,0.00,VWS V14.00,2013-01-21 12:32:00,
2013-01-21 07:37:00,28.9,22.0,29.06,SSW,209,0.0,0.0,75,0.00,,SKC,0.00,VWS V14.00,2013-01-21 12:37:00,
2013-01-21 07:42:00,28.9,22.0,29.06,SSW,209,0.0,0.0,75,0.00,,SKC,0.00,VWS V14.00,2013-01-21 12:42:00,
2013-01-21 07:47:00,28.8,21.9,29.06,SSW,209,0.0,0.0,75,0.00,,SKC,0.00,VWS V14.00,2013-01-21 12:47:00,
2013-01-21 07:52:00,28.6,21.7,29.06,SSW,209,0.0,0.0,75,0.00,,SKC,0.00,VWS V14.00,2013-01-21 12:52:00,
2013-01-21 07:57:00,28.6,21.7,29.06,SSW,209,0.0,0.0,75,0.00,,SKC,0.00,VWS V14.00,2013-01-21 12:57:00,
2013-01-21 08:02:00,28.8,22.2,29.06,SSW,209,0.0,0.0,76,0.00,,SKC,0.00,VWS V14.00,2013-01-21 13:02:00,
2013-01-21 08:07:00,29.1,22.5,29.06,SSW,209,0.0,0.0,76,0.00,,SKC,0.00,VWS V14.00,2013-01-21 13:07:00,
2013-01-21 08:12:00,29.5,22.9,29.06,SSW,209,0.0,0.0,76,0.00,,SKC,0.00,VWS V14.00,2013-01-21 13:12:00,
2013-01-21 08:17:00,29.5,22.9,29.09,SSW,209,0.0,0.0,76,0.00,,SKC,0.00,VWS V14.00,2013-01-21 13:17:00,
2013-01-21 08:22:00,29.7,23.0,29.09,SSW,209,0.0,0.0,76,0.00,,SKC,0.00,VWS V14.00,2013-01-21 13:22:00,
2013-01-21 08:27:00,29.8,23.2,29.09,SSW,209,0.0,0.0,76,0.00,,SKC,0.00,VWS V14.00,2013-01-21 13:27:00,
2013-01-21 08:32:00,29.7,23.0,29.09,SSW,209,0.0,0.0,76,0.00,,SKC,0.00,VWS V14.00,2013-01-21 13:32:00,
2013-01-21 08:37:00,29.8,23.2,29.09,SSW,209,0.0,0.0,76,0.00,,SKC,0.00,VWS V14.00,2013-01-21 13:37:00,
2013-01-21 08:42:00,29.8,23.2,29.09,SSW,209,0.0,0.0,76,0.00,,SKC,0.00,VWS V14.00,2013-01-21 13:42:00,
2013-01-21 08:47:00,30.0,23.4,29.09,SSW,209,0.0,0.0,76,0.00,,SKC,0.00,VWS V14.00,2013-01-21 13:47:00,
2013-01-21 08:52:00,30.2,23.9,29.09,SSW,209,0.0,0.0,77,0.00,,SKC,0.00,VWS V14.00,2013-01-21 13:52:00,
2013-01-21 08:57:00,30.4,24.0,29.09,SSW,209,0.0,0.0,77,0.00,,SKC,0.00,VWS V14.00,2013-01-21 13:57:00,
2013-01-21 09:02:00,30.7,24.4,29.09,SSW,209,0.0,0.0,77,0.00,,SKC,0.00,VWS V14.00,2013-01-21 14:02:00,
2013-01-21 09:07:00,30.9,24.6,29.09,SSW,209,0.0,0.0,77,0.00,,SKC,0.00,VWS V14.00,2013-01-21 14:07:00,
2013-01-21 09:12:00,31.1,24.8,29.09,SSW,209,0.0,0.0,77,0.00,,SKC,0.00,VWS V14.00,2013-01-21 14:12:00,
2013-01-21 09:17:00,31.5,25.1,29.12,SSW,209,0.0,0.0,77,0.00,,SKC,0.00,VWS V14.00,2013-01-21 14:17:00,
2013-01-21 09:22:00,31.8,25.8,29.12,SSW,209,0.0,0.0,78,0.00,,SKC,0.00,VWS V14.00,2013-01-21 14:22:00,
2013-01-21 09:27:00,32.2,26.1,29.12,SSW,209,0.0,0.0,78,0.00,,SKC,0.00,VWS V14.00,2013-01-21 14:27:00,
2013-01-21 09:32:00,32.5,26.5,29.12,SSW,209,0.0,0.0,78,0.00,,SKC,0.00,VWS V14.00,2013-01-21 14:32:00,
2013-01-21 09:37:00,32.7,26.6,29.12,South,185,3.2,4.0,78,0.00,,SKC,0.00,VWS V14.00,2013-01-21 14:37:00,
2013-01-21 09:42:00,32.9,26.8,29.12,WSW,237,0.0,0.0,78,0.00,,SKC,0.00,VWS V14.00,2013-01-21 14:42:00,
2013-01-21 09:47:00,33.3,27.5,29.12,SSW,198,0.0,0.0,79,0.00,,SKC,0.00,VWS V14.00,2013-01-21 14:47:00,
2013-01-21 09:52:00,33.6,27.8,29.12,SSW,211,4.3,4.3,79,0.00,,SKC,0.00,VWS V14.00,2013-01-21 14:52:00,
2013-01-21 09:57:00,33.8,28.0,29.12,SSW,204,0.0,4.0,79,0.00,,SKC,0.00,VWS V14.00,2013-01-21 14:57:00,
2013-01-21 10:02:00,34.2,28.3,29.12,SW,220,0.0,4.0,79,0.00,,SKC,0.00,VWS V14.00,2013-01-21 15:02:00,
2013-01-21 10:07:00,34.5,28.7,29.12,SW,216,0.0,4.0,79,0.00,,SKC,0.00,VWS V14.00,2013-01-21 15:07:00,
2013-01-21 10:12:00,34.7,28.9,29.12,SW,231,0.0,0.0,79,0.00,,SKC,0.00,VWS V14.00,2013-01-21 15:12:00,
2013-01-21 10:17:00,34.9,29.0,29.12,SW,221,0.0,0.0,79,0.00,,SKC,0.00,VWS V14.00,2013-01-21 15:17:00,
2013-01-21 10:22:00,35.1,29.2,29.12,SW,220,0.0,0.0,79,0.00,,SKC,0.00,VWS V14.00,2013-01-21 15:22:00,
2013-01-21 10:27:00,35.4,29.9,29.12,WSW,242,0.0,4.9,80,0.00,,SKC,0.00,VWS V14.00,2013-01-21 15:27:00,
2013-01-21 10:32:00,35.8,29.9,29.12,WSW,237,0.0,3.6,79,0.00,,SKC,0.00,VWS V14.00,2013-01-21 15:32:00,
2013-01-21 10:37:00,36.0,30.1,29.12,SW,220,3.8,5.8,79,0.00,,SKC,0.00,VWS V14.00,2013-01-21 15:37:00,
2013-01-21 10:42:00,36.1,30.3,29.12,SW,227,4.8,4.8,79,0.00,,SKC,0.00,VWS V14.00,2013-01-21 15:42:00,
2013-01-21 10:47:00,36.3,30.4,29.12,SW,222,2.7,4.5,79,0.00,,SKC,0.00,VWS V14.00,2013-01-21 15:47:00,
2013-01-21 10:52:00,36.7,30.5,29.12,West,261,0.0,3.6,78,0.00,,SKC,0.00,VWS V14.00,2013-01-21 15:52:00,
2013-01-21 10:57:00,37.2,31.0,29.12,NNW,333,7.5,7.5,78,0.00,,SKC,0.00,VWS V14.00,2013-01-21 15:57:00,
2013-01-21 11:02:00,37.6,30.7,29.12,NW,323,3.8,4.9,76,0.00,,SKC,0.00,VWS V14.00,2013-01-21 16:02:00,
2013-01-21 11:07:00,38.1,30.6,29.12,NW,317,6.4,6.4,74,0.00,,SKC,0.00,VWS V14.00,2013-01-21 16:07:00,
2013-01-21 11:12:00,38.5,29.9,29.12,NW,320,4.3,8.3,71,0.00,,SKC,0.00,VWS V14.00,2013-01-21 16:12:00,
2013-01-21 11:17:00,38.5,28.9,29.12,NW,317,4.3,8.3,68,0.00,,SKC,0.00,VWS V14.00,2013-01-21 16:17:00,
2013-01-21 11:22:00,38.7,28.7,29.12,WNW,299,0.0,5.4,67,0.00,,SKC,0.00,VWS V14.00,2013-01-21 16:22:00,
2013-01-21 11:27:00,38.7,27.9,29.12,SW,235,3.2,5.4,65,0.00,,SKC,0.00,VWS V14.00,2013-01-21 16:27:00,
2013-01-21 11:32:00,38.5,27.8,29.12,SW,232,0.0,3.6,65,0.00,,SKC,0.00,VWS V14.00,2013-01-21 16:32:00,
2013-01-21 11:37:00,38.3,25.6,29.12,WSW,255,0.0,10.5,60,0.00,,SKC,0.00,VWS V14.00,2013-01-21 16:37:00,
2013-01-21 11:42:00,38.5,26.6,29.12,NW,319,4.8,7.6,62,0.00,,SKC,0.00,VWS V14.00,2013-01-21 16:42:00,
2013-01-21 11:47:00,39.2,26.5,29.12,NW,318,4.8,7.6,60,0.00,,SKC,0.00,VWS V14.00,2013-01-21 16:47:00,
2013-01-21 11:52:00,39.6,26.0,29.12,WNW,301,5.9,6.7,58,0.00,,SKC,0.00,VWS V14.00,2013-01-21 16:52:00,
2013-01-21 11:57:00,39.7,25.3,29.12,NW,309,3.8,7.6,56,0.00,,SKC,0.00,VWS V14.00,2013-01-21 16:57:00,
2013-01-21 12:02:00,40.1,25.7,29.12,SW,231,4.3,6.3,56,0.00,,SKC,0.00,VWS V14.00,2013-01-21 17:02:00,
2013-01-21 12:07:00,39.9,25.5,29.12,WSW,238,4.3,6.3,56,0.00,,SKC,0.00,VWS V14.00,2013-01-21 17:07:00,
2013-01-21 12:12:00,40.3,24.5,29.12,NE,42,0.0,3.6,53,0.00,,SKC,0.00,VWS V14.00,2013-01-21 17:12:00,
2013-01-21 12:17:00,40.6,25.3,29.12,WNW,299,6.4,8.1,54,0.00,,SKC,0.00,VWS V14.00,2013-01-21 17:17:00,
2013-01-21 12:22:00,40.5,26.0,29.12,WSW,243,4.8,5.4,56,0.00,,SKC,0.00,VWS V14.00,2013-01-21 17:22:00,
2013-01-21 12:27:00,40.6,25.8,29.12,WSW,237,3.2,8.3,55,0.00,,SKC,0.00,VWS V14.00,2013-01-21 17:27:00,
2013-01-21 12:32:00,40.6,25.3,29.09,NNW,336,4.8,6.3,54,0.00,,SKC,0.00,VWS V14.00,2013-01-21 17:32:00,
2013-01-21 12:37:00,40.6,23.5,29.09,NW,304,7.0,10.1,50,0.00,,SKC,0.00,VWS V14.00,2013-01-21 17:37:00,
2013-01-21 12:42:00,41.0,23.3,29.09,NW,321,7.5,7.6,49,0.00,,SKC,0.00,VWS V14.00,2013-01-21 17:42:00,
2013-01-21 12:47:00,41.2,22.5,29.09,WNW,283,3.2,8.3,47,0.00,,SKC,0.00,VWS V14.00,2013-01-21 17:47:00,
2013-01-21 12:52:00,41.4,23.6,29.09,WNW,302,4.3,6.3,49,0.00,,SKC,0.00,VWS V14.00,2013-01-21 17:52:00,
2013-01-21 12:57:00,41.7,22.5,29.09,NW,323,3.2,8.3,46,0.00,,SKC,0.00,VWS V14.00,2013-01-21 17:57:00,
2013-01-21 13:02:00,42.3,24.0,29.09,NNW,327,3.8,5.4,48,0.00,,SKC,0.00,VWS V14.00,2013-01-21 18:02:00,
2013-01-21 13:07:00,43.0,24.1,29.09,NW,321,4.8,5.4,47,0.00,,SKC,0.00,VWS V14.00,2013-01-21 18:07:00,
2013-01-21 13:12:00,43.0,24.6,29.09,NW,304,8.6,8.6,48,0.00,,SKC,0.00,VWS V14.00,2013-01-21 18:12:00,
2013-01-21 13:18:00,43.0,24.6,29.09,NNW,330,9.1,9.1,48,0.00,,SKC,0.00,VWS V14.00,2013-01-21 18:18:00,
2013-01-21 13:23:00,43.0,24.1,29.09,West,267,6.4,6.4,47,0.00,,SKC,0.00,VWS V14.00,2013-01-21 18:23:00,
2013-01-21 13:28:00,43.2,24.3,29.09,NNW,329,0.0,5.8,47,0.00,,SKC,0.00,VWS V14.00,2013-01-21 18:28:00,
2013-01-21 13:33:00,43.3,24.5,29.09,West,278,4.8,5.8,47,0.00,,SKC,0.00,VWS V14.00,2013-01-21 18:33:00,
2013-01-21 13:38:00,43.5,24.6,29.09,NW,323,0.0,5.8,47,0.00,,SKC,0.00,VWS V14.00,2013-01-21 18:38:00,
2013-01-21 13:43:00,43.7,24.8,29.09,NW,326,6.4,6.4,47,0.00,,SKC,0.00,VWS V14.00,2013-01-21 18:43:00,
2013-01-21 13:48:00,43.9,24.5,29.06,WSW,245,3.2,6.3,46,0.00,,SKC,0.00,VWS V14.00,2013-01-21 18:48:00,
2013-01-21 13:53:00,44.1,24.6,29.06,WSW,241,0.0,0.0,46,0.00,,SKC,0.00,VWS V14.00,2013-01-21 18:53:00,
2013-01-21 13:58:00,44.2,25.8,29.06,WSW,237,0.0,4.0,48,0.00,,SKC,0.00,VWS V14.00,2013-01-21 18:58:00,
2013-01-21 14:03:00,44.6,25.6,29.06,SW,231,3.2,5.8,47,0.00,,SKC,0.00,VWS V14.00,2013-01-21 19:03:00,
2013-01-21 14:08:00,45.0,26.5,29.06,WNW,289,2.7,8.3,48,0.00,,SKC,0.00,VWS V14.00,2013-01-21 19:08:00,
2013-01-21 14:13:00,44.8,23.7,29.06,NW,317,3.2,5.8,43,0.00,,SKC,0.00,VWS V14.00,2013-01-21 19:13:00,
2013-01-21 14:18:00,45.1,25.6,29.06,SW,221,2.7,5.8,46,0.00,,SKC,0.00,VWS V14.00,2013-01-21 19:18:00,
2013-01-21 14:23:00,45.1,24.5,29.06,NNE,19,4.3,5.8,44,0.00,,SKC,0.00,VWS V14.00,2013-01-21 19:23:00,
2013-01-21 14:28:00,45.3,24.2,29.06,NNW,329,6.4,6.4,43,0.00,,SKC,0.00,VWS V14.00,2013-01-21 19:28:00,
2013-01-21 14:33:00,45.5,25.4,29.06,WNW,302,0.0,2.7,45,0.00,,SKC,0.00,VWS V14.00,2013-01-21 19:33:00,
2013-01-21 14:38:00,45.5,24.9,29.06,SW,235,4.8,6.3,44,0.00,,SKC,0.00,VWS V14.00,2013-01-21 19:38:00,
2013-01-21 14:43:00,45.5,24.9,29.06,NW,323,5.9,5.9,44,0.00,,SKC,0.00,VWS V14.00,2013-01-21 19:43:00,
2013-01-21 14:48:00,45.5,24.3,29.06,West,261,0.0,6.7,43,0.00,,SKC,0.00,VWS V14.00,2013-01-21 19:48:00,
2013-01-21 14:53:00,45.5,24.9,29.06,West,279,5.9,6.3,44,0.00,,SKC,0.00,VWS V14.00,2013-01-21 19:53:00,
2013-01-21 14:58:00,45.5,24.3,29.06,WSW,249,3.8,6.3,43,0.00,,SKC,0.00,VWS V14.00,2013-01-21 19:58:00,
2013-01-21 15:03:00,45.1,24.5,29.06,SW,236,3.2,5.8,44,0.00,,SKC,0.00,VWS V14.00,2013-01-21 20:03:00,
2013-01-21 15:08:00,45.0,24.4,29.06,SW,229,0.0,6.3,44,0.00,,SKC,0.00,VWS V14.00,2013-01-21 20:08:00,
2013-01-21 15:13:00,45.0,22.7,29.06,SW,229,3.8,5.4,41,0.00,,SKC,0.00,VWS V14.00,2013-01-21 20:13:00,
2013-01-21 15:18:00,45.0,23.3,29.06,West,259,0.0,5.4,42,0.00,,SKC,0.00,VWS V14.00,2013-01-21 20:18:00,
2013-01-21 15:23:00,44.8,24.2,29.06,SW,234,0.0,5.4,44,0.00,,SKC,0.00,VWS V14.00,2013-01-21 20:23:00,
2013-01-21 15:28:00,44.6,22.4,29.06,NW,324,6.4,8.3,41,0.00,,SKC,0.00,VWS V14.00,2013-01-21 20:28:00,
2013-01-21 15:33:00,44.4,22.2,29.06,NW,318,3.2,5.8,41,0.00,,SKC,0.00,VWS V14.00,2013-01-21 20:33:00,
2013-01-21 15:38:00,44.2,21.5,29.06,SW,222,4.3,6.3,40,0.00,,SKC,0.00,VWS V14.00,2013-01-21 20:38:00,
2013-01-21 15:43:00,44.1,21.3,29.06,NNW,341,6.4,6.4,40,0.00,,SKC,0.00,VWS V14.00,2013-01-21 20:43:00,
2013-01-21 15:48:00,44.1,21.3,29.06,SW,236,3.8,7.2,40,0.00,,SKC,0.00,VWS V14.00,2013-01-21 20:48:00,
2013-01-21 15:53:00,43.7,20.4,29.06,NW,323,7.5,8.1,39,0.00,,SKC,0.00,VWS V14.00,2013-01-21 20:53:00,
2013-01-21 15:58:00,43.7,21.0,29.06,NW,324,3.2,8.7,40,0.00,,SKC,0.00,VWS V14.00,2013-01-21 20:58:00,
2013-01-21 16:03:00,43.7,21.0,29.06,NW,304,3.2,6.3,40,0.00,,SKC,0.00,VWS V14.00,2013-01-21 21:03:00,
2013-01-21 16:08:00,43.3,21.2,29.06,WSW,245,4.3,6.3,41,0.00,,SKC,0.00,VWS V14.00,2013-01-21 21:08:00,
2013-01-21 16:13:00,43.2,21.1,29.06,SW,222,4.8,6.3,41,0.00,,SKC,0.00,VWS V14.00,2013-01-21 21:13:00,
2013-01-21 16:18:00,43.0,20.9,29.06,SW,232,3.2,6.3,41,0.00,,SKC,0.00,VWS V14.00,2013-01-21 21:18:00,
2013-01-21 16:23:00,42.8,20.8,29.06,WSW,243,3.8,3.8,41,0.00,,SKC,0.00,VWS V14.00,2013-01-21 21:23:00,
2013-01-21 16:28:00,42.8,20.2,29.06,SW,227,2.7,8.1,40,0.00,,SKC,0.00,VWS V14.00,2013-01-21 21:28:00,
2013-01-21 16:33:00,42.8,20.2,29.09,WSW,240,3.2,4.9,40,0.00,,SKC,0.00,VWS V14.00,2013-01-21 21:33:00,
2013-01-21 16:38:00,42.8,20.2,29.09,WSW,238,4.8,6.7,40,0.00,,SKC,0.00,VWS V14.00,2013-01-21 21:38:00,
2013-01-21 16:43:00,42.4,20.4,29.09,SW,233,4.3,4.3,41,0.00,,SKC,0.00,VWS V14.00,2013-01-21 21:43:00,
2013-01-21 16:48:00,42.3,19.7,29.06,WSW,237,4.3,8.3,40,0.00,,SKC,0.00,VWS V14.00,2013-01-21 21:48:00,
2013-01-21 16:53:00,42.1,19.5,29.06,NW,306,0.0,5.4,40,0.00,,SKC,0.00,VWS V14.00,2013-01-21 21:53:00,
2013-01-21 16:58:00,41.7,19.8,29.06,SW,229,6.4,6.4,41,0.00,,SKC,0.00,VWS V14.00,2013-01-21 21:58:00,
2013-01-21 17:03:00,41.5,19.6,29.06,West,260,0.0,6.3,41,0.00,,SKC,0.00,VWS V14.00,2013-01-21 22:03:00,
2013-01-21 17:08:00,41.5,19.0,29.06,SW,235,0.0,6.3,40,0.00,,SKC,0.00,VWS V14.00,2013-01-21 22:08:00,
2013-01-21 17:13:00,41.2,18.7,29.06,NW,311,0.0,5.8,40,0.00,,SKC,0.00,VWS V14.00,2013-01-21 22:13:00,
2013-01-21 17:18:00,41.0,19.1,29.06,WSW,248,4.8,5.8,41,0.00,,SKC,0.00,VWS V14.00,2013-01-21 22:18:00,
2013-01-21 17:23:00,40.6,18.8,29.06,WSW,253,0.0,4.0,41,0.00,,SKC,0.00,VWS V14.00,2013-01-21 22:23:00,
2013-01-21 17:28:00,40.3,18.5,29.06,NNW,329,3.8,8.3,41,0.00,,SKC,0.00,VWS V14.00,2013-01-21 22:28:00,
2013-01-21 17:33:00,40.3,18.5,29.06,WSW,241,0.0,5.4,41,0.00,,SKC,0.00,VWS V14.00,2013-01-21 22:33:00,
2013-01-21 17:38:00,39.9,18.1,29.06,WSW,258,0.0,5.4,41,0.00,,SKC,0.00,VWS V14.00,2013-01-21 22:38:00,
2013-01-21 17:43:00,39.6,18.4,29.06,WSW,238,0.0,5.4,42,0.00,,SKC,0.00,VWS V14.00,2013-01-21 22:43:00,
2013-01-21 17:48:00,39.2,18.0,29.06,SW,236,0.0,5.8,42,0.00,,SKC,0.00,VWS V14.00,2013-01-21 22:48:00,
2013-01-21 17:53:00,38.8,18.3,29.06,SW,229,0.0,3.6,43,0.00,,SKC,0.00,VWS V14.00,2013-01-21 22:53:00,
2013-01-21 17:58:00,38.7,17.6,29.06,WSW,242,3.8,4.5,42,0.00,,SKC,0.00,VWS V14.00,2013-01-21 22:58:00,
2013-01-21 18:03:00,38.5,17.4,29.09,NW,304,0.0,4.9,42,0.00,,SKC,0.00,VWS V14.00,2013-01-21 23:03:00,
2013-01-21 18:08:00,38.3,17.2,29.09,NW,306,0.0,4.9,42,0.00,,SKC,0.00,VWS V14.00,2013-01-21 23:08:00,
2013-01-21 18:13:00,38.1,17.1,29.09,NW,304,3.2,5.4,42,0.00,,SKC,0.00,VWS V14.00,2013-01-21 23:13:00,
2013-01-21 18:18:00,38.1,17.1,29.09,WNW,290,0.0,6.3,42,0.00,,SKC,0.00,VWS V14.00,2013-01-21 23:18:00,
2013-01-21 18:23:00,38.1,16.5,29.09,NW,308,0.0,3.6,41,0.00,,SKC,0.00,VWS V14.00,2013-01-21 23:23:00,
2013-01-21 18:28:00,37.9,16.9,29.09,WNW,301,0.0,3.6,42,0.00,,SKC,0.00,VWS V14.00,2013-01-21 23:28:00,
2013-01-21 18:33:00,37.4,16.4,29.09,West,279,0.0,0.0,42,0.00,,SKC,0.00,VWS V14.00,2013-01-21 23:33:00,
2013-01-21 18:38:00,37.0,16.6,29.09,SW,222,0.0,0.0,43,0.00,,SKC,0.00,VWS V14.00,2013-01-21 23:38:00,
2013-01-21 18:43:00,36.9,16.5,29.09,SW,222,0.0,0.0,43,0.00,,SKC,0.00,VWS V14.00,2013-01-21 23:43:00,
2013-01-21 18:48:00,36.7,16.3,29.09,SW,222,0.0,0.0,43,0.00,,SKC,0.00,VWS V14.00,2013-01-21 23:48:00,
2013-01-21 18:53:00,36.5,16.1,29.09,NW,309,0.0,4.9,43,0.00,,SKC,0.00,VWS V14.00,2013-01-21 23:53:00,
2013-01-21 18:58:00,36.3,16.0,29.09,WSW,238,0.0,4.9,43,0.00,,SKC,0.00,VWS V14.00,2013-01-21 23:58:00,
2013-01-21 19:04:00,36.1,16.4,29.09,SW,231,4.3,4.3,44,0.00,,SKC,0.00,VWS V14.00,2013-01-22 00:04:00,
2013-01-21 19:09:00,35.8,16.0,29.09,SW,236,2.7,3.6,44,0.00,,SKC,0.00,VWS V14.00,2013-01-22 00:09:00,
2013-01-21 19:14:00,35.8,16.0,29.09,WSW,257,0.0,0.0,44,0.00,,SKC,0.00,VWS V14.00,2013-01-22 00:14:00,
2013-01-21 19:19:00,35.6,15.9,29.09,West,280,3.2,4.0,44,0.00,,SKC,0.00,VWS V14.00,2013-01-22 00:19:00,
2013-01-21 19:24:00,35.4,16.2,29.09,WSW,239,0.0,3.6,45,0.00,,SKC,0.00,VWS V14.00,2013-01-22 00:24:00,
2013-01-21 19:29:00,35.4,15.7,29.09,WNW,289,0.0,4.9,44,0.00,,SKC,0.00,VWS V14.00,2013-01-22 00:29:00,
2013-01-21 19:34:00,35.2,15.5,29.09,SW,223,2.7,3.6,44,0.00,,SKC,0.00,VWS V14.00,2013-01-22 00:34:00,
2013-01-21 19:39:00,35.1,15.4,29.09,WSW,240,3.2,3.6,44,0.00,,SKC,0.00,VWS V14.00,2013-01-22 00:39:00,
2013-01-21 19:44:00,34.9,15.2,29.09,NW,316,2.7,3.6,44,0.00,,SKC,0.00,VWS V14.00,2013-01-22 00:44:00,
2013-01-21 19:49:00,34.7,14.5,29.12,NW,322,4.3,4.9,43,0.00,,SKC,0.00,VWS V14.00,2013-01-22 00:49:00,
2013-01-21 19:54:00,34.7,14.5,29.12,SW,235,2.7,4.5,43,0.00,,SKC,0.00,VWS V14.00,2013-01-22 00:54:00,
2013-01-21 19:59:00,34.5,14.3,29.12,WSW,252,2.7,6.3,43,0.00,,SKC,0.00,VWS V14.00,2013-01-22 00:59:00,
2013-01-21 20:04:00,34.3,14.7,29.12,NW,312,0.0,4.0,44,0.00,,SKC,0.00,VWS V14.00,2013-01-22 01:04:00,
2013-01-21 20:09:00,34.2,14.5,29.12,NNW,339,3.2,4.0,44,0.00,,SKC,0.00,VWS V14.00,2013-01-22 01:09:00,
2013-01-21 20:14:00,34.0,14.4,29.12,WSW,251,3.2,5.8,44,0.00,,SKC,0.00,VWS V14.00,2013-01-22 01:14:00,
2013-01-21 20:19:00,34.0,13.9,29.12,WSW,250,3.2,6.3,43,0.00,,SKC,0.00,VWS V14.00,2013-01-22 01:19:00,
2013-01-21 20:24:00,33.8,13.7,29.12,WSW,252,0.0,5.4,43,0.00,,SKC,0.00,VWS V14.00,2013-01-22 01:24:00,
2013-01-21 20:29:00,33.6,13.5,29.12,WNW,303,3.2,5.4,43,0.00,,SKC,0.00,VWS V14.00,2013-01-22 01:29:00,
2013-01-21 20:34:00,33.6,13.5,29.12,NW,305,0.0,5.4,43,0.00,,SKC,0.00,VWS V14.00,2013-01-22 01:34:00,
2013-01-21 20:39:00,33.6,13.5,29.12,NW,320,0.0,5.4,43,0.00,,SKC,0.00,VWS V14.00,2013-01-22 01:39:00,
2013-01-21 20:44:00,33.3,13.7,29.12,SW,222,0.0,3.1,44,0.00,,SKC,0.00,VWS V14.00,2013-01-22 01:44:00,
2013-01-21 20:49:00,33.1,13.6,29.12,SW,219,0.0,3.1,44,0.00,,SKC,0.00,VWS V14.00,2013-01-22 01:49:00,
2013-01-21 20:54:00,32.9,13.4,29.12,SW,219,0.0,0.0,44,0.00,,SKC,0.00,VWS V14.00,2013-01-22 01:54:00,
2013-01-21 20:59:00,32.7,13.7,29.12,SSW,203,0.0,0.0,45,0.00,,SKC,0.00,VWS V14.00,2013-01-22 01:59:00,
2013-01-21 21:04:00,32.7,13.7,29.12,South,180,0.0,2.7,45,0.00,,SKC,0.00,VWS V14.00,2013-01-22 02:04:00,
2013-01-21 21:09:00,32.5,13.6,29.12,SSW,200,0.0,2.7,45,0.00,,SKC,0.00,VWS V14.00,2013-01-22 02:09:00,
2013-01-21 21:14:00,32.5,13.6,29.12,SSW,200,0.0,0.0,45,0.00,,SKC,0.00,VWS V14.00,2013-01-22 02:14:00,
2013-01-21 21:19:00,32.4,13.9,29.15,SSW,210,0.0,0.0,46,0.00,,SKC,0.00,VWS V14.00,2013-01-22 02:19:00,
2013-01-21 21:24:00,32.4,13.9,29.15,SSW,210,0.0,0.0,46,0.00,,SKC,0.00,VWS V14.00,2013-01-22 02:24:00,
2013-01-21 21:29:00,32.2,13.7,29.15,SSW,210,0.0,0.0,46,0.00,,SKC,0.00,VWS V14.00,2013-01-22 02:29:00,
2013-01-21 21:34:00,32.0,13.6,29.15,SSW,210,0.0,0.0,46,0.00,,SKC,0.00,VWS V14.00,2013-01-22 02:34:00,
2013-01-21 21:39:00,31.8,13.4,29.15,SSW,210,0.0,0.0,46,0.00,,SKC,0.00,VWS V14.00,2013-01-22 02:39:00,
2013-01-21 21:44:00,31.6,13.2,29.15,SSW,210,0.0,0.0,46,0.00,,SKC,0.00,VWS V14.00,2013-01-22 02:44:00,
2013-01-21 21:49:00,31.5,13.1,29.15,NE,35,0.0,2.7,46,0.00,,SKC,0.00,VWS V14.00,2013-01-22 02:49:00,
2013-01-21 21:54:00,31.5,13.1,29.15,North,0,0.0,0.0,46,0.00,,SKC,0.00,VWS V14.00,2013-01-22 02:54:00,
2013-01-21 21:59:00,31.3,12.4,29.15,NW,314,0.0,4.0,45,0.00,,SKC,0.00,VWS V14.00,2013-01-22 02:59:00,
2013-01-21 22:04:00,31.3,12.4,29.15,SW,216,0.0,0.0,45,0.00,,SKC,0.00,VWS V14.00,2013-01-22 03:04:00,
2013-01-21 22:09:00,31.1,12.2,29.15,SW,216,0.0,0.0,45,0.00,,SKC,0.00,VWS V14.00,2013-01-22 03:09:00,
2013-01-21 22:14:00,31.1,12.2,29.15,NW,309,0.0,0.0,45,0.00,,SKC,0.00,VWS V14.00,2013-01-22 03:14:00,
2013-01-21 22:19:00,30.9,12.1,29.15,NW,309,0.0,0.0,45,0.00,,SKC,0.00,VWS V14.00,2013-01-22 03:19:00,
2013-01-21 22:24:00,30.7,11.9,29.15,SW,232,0.0,0.0,45,0.00,,SKC,0.00,VWS V14.00,2013-01-22 03:24:00,
2013-01-21 22:29:00,30.7,11.4,29.15,West,267,0.0,0.0,44,0.00,,SKC,0.00,VWS V14.00,2013-01-22 03:29:00,
2013-01-21 22:34:00,30.6,11.2,29.15,South,180,0.0,0.0,44,0.00,,SKC,0.00,VWS V14.00,2013-01-22 03:34:00,
2013-01-21 22:39:00,30.6,11.8,29.15,South,180,0.0,0.0,45,0.00,,SKC,0.00,VWS V14.00,2013-01-22 03:39:00,
2013-01-21 22:44:00,30.6,11.8,29.15,South,180,0.0,0.0,45,0.00,,SKC,0.00,VWS V14.00,2013-01-22 03:44:00,
2013-01-21 22:49:00,30.4,11.6,29.15,WNW,299,0.0,0.0,45,0.00,,SKC,0.00,VWS V14.00,2013-01-22 03:49:00,
2013-01-21 22:54:00,30.4,11.6,29.15,SW,235,0.0,0.0,45,0.00,,SKC,0.00,VWS V14.00,2013-01-22 03:54:00,
2013-01-21 22:59:00,30.4,12.1,29.15,SW,235,0.0,0.0,46,0.00,,SKC,0.00,VWS V14.00,2013-01-22 03:59:00,
2013-01-21 23:04:00,30.2,11.9,29.18,South,184,0.0,3.6,46,0.00,,SKC,0.00,VWS V14.00,2013-01-22 04:04:00,
2013-01-21 23:09:00,30.2,12.4,29.18,South,189,0.0,3.6,47,0.00,,SKC,0.00,VWS V14.00,2013-01-22 04:09:00,
2013-01-21 23:14:00,30.2,12.4,29.18,South,189,0.0,0.0,47,0.00,,SKC,0.00,VWS V14.00,2013-01-22 04:14:00,
2013-01-21 23:19:00,30.2,12.4,29.18,South,189,0.0,0.0,47,0.00,,SKC,0.00,VWS V14.00,2013-01-22 04:19:00,
2013-01-21 23:24:00,30.2,12.9,29.18,South,189,0.0,0.0,48,0.00,,SKC,0.00,VWS V14.00,2013-01-22 04:24:00,
2013-01-21 23:29:00,30.2,12.9,29.18,South,189,0.0,0.0,48,0.00,,SKC,0.00,VWS V14.00,2013-01-22 04:29:00,
2013-01-21 23:34:00,30.2,12.9,29.18,South,189,0.0,0.0,48,0.00,,SKC,0.00,VWS V14.00,2013-01-22 04:34:00,
2013-01-21 23:39:00,30.0,12.7,29.18,South,189,0.0,0.0,48,0.00,,SKC,0.00,VWS V14.00,2013-01-22 04:39:00,
2013-01-21 23:44:00,30.0,13.2,29.18,South,189,0.0,0.0,49,0.00,,SKC,0.00,VWS V14.00,2013-01-22 04:44:00,
2013-01-21 23:49:00,30.0,13.2,29.18,SSW,210,2.7,4.0,49,0.00,,SKC,0.00,VWS V14.00,2013-01-22 04:49:00,
2013-01-21 23:54:00,29.8,13.0,29.18,SW,231,0.0,3.6,49,0.00,,SKC,0.00,VWS V14.00,2013-01-22 04:54:00,
2013-01-21 23:59:00,29.7,12.9,29.18,WSW,253,0.0,3.6,49,0.00,,SKC,0.00,VWS V14.00,2013-01-22 04:59:00,